Hourly Weather Kistel'nytsya

Today, 21 April, Wednesday

Time Temperature Precipitation Wind Pressure Humidity
00:00 +7°C° 0 mm 2 mps 743 mmHg 77%
01:00 +8°C° 0 mm 1 mps 743 mmHg 78%
02:00 +7°C° 0 mm 1 mps 744 mmHg 78%
03:00 +7°C° 0 mm 1 mps 744 mmHg 79%
04:00 +7°C° 0 mm 1 mps 744 mmHg 79%
05:00 +7°C° 0 mm 1 mps 744 mmHg 80%
06:00 +7°C° 0 mm 2 mps 744 mmHg 73%
07:00 +9°C° 0 mm 2 mps 745 mmHg 67%
08:00 +12°C° 0 mm 2 mps 745 mmHg 61%
09:00 +12°C° 0 mm 3 mps 746 mmHg 56%
10:00 +13°C° 0 mm 3 mps 746 mmHg 51%
11:00 +14°C° 0 mm 3 mps 746 mmHg 46%
12:00 +16°C° 0 mm 3 mps 746 mmHg 44%
13:00 +16°C° 0 mm 3 mps 746 mmHg 41%
14:00 +16°C° 0 mm 3 mps 746 mmHg 39%
15:00 +16°C° 0 mm 3 mps 746 mmHg 42%
16:00 +16°C° 0 mm 3 mps 746 mmHg 44%
17:00 +16°C° 0 mm 2 mps 746 mmHg 47%
18:00 +14°C° 0 mm 2 mps 746 mmHg 51%
19:00 +13°C° 0 mm 1 mps 747 mmHg 55%
20:00 +12°C° 0 mm 1 mps 747 mmHg 60%
21:00 +11°C° 0 mm 1 mps 747 mmHg 62%
22:00 +10°C° 0 mm 2 mps 747 mmHg 65%
23:00 +9°C° 0 mm 2 mps 747 mmHg 68%

Tomorrow, 22 April, Thursday

Time Temperature Precipitation Wind Pressure Humidity
00:00 +9°C° 0 mm 2 mps 748 mmHg 72%
01:00 +8°C° 0 mm 2 mps 748 mmHg 77%
02:00 +8°C° 0 mm 2 mps 748 mmHg 82%
03:00 +8°C° 0 mm 2 mps 748 mmHg 83%
04:00 +7°C° 0 mm 2 mps 748 mmHg 83%
05:00 +7°C° 0 mm 2 mps 748 mmHg 84%
06:00 +9°C° 0 mm 3 mps 748 mmHg 78%
07:00 +11°C° 0 mm 3 mps 749 mmHg 71%
08:00 +12°C° 0 mm 3 mps 749 mmHg 65%
09:00 +14°C° 0.1 mm 4 mps 749 mmHg 59%
10:00 +15°C° 0.1 mm 4 mps 749 mmHg 53%
11:00 +17°C° 0.1 mm 5 mps 749 mmHg 47%
12:00 +17°C° 0 mm 5 mps 749 mmHg 44%
13:00 +19°C° 0 mm 5 mps 748 mmHg 41%
14:00 +19°C° 0 mm 5 mps 748 mmHg 38%
15:00 +19°C° 0 mm 5 mps 748 mmHg 40%
16:00 +17°C° 0 mm 5 mps 748 mmHg 43%
17:00 +17°C° 0 mm 5 mps 747 mmHg 46%
18:00 +16°C° 0 mm 5 mps 747 mmHg 52%
19:00 +14°C° 0 mm 4 mps 748 mmHg 58%
20:00 +13°C° 0 mm 4 mps 748 mmHg 65%
21:00 +12°C° 0 mm 4 mps 748 mmHg 67%
22:00 +11°C° 0 mm 4 mps 748 mmHg 69%
23:00 +10°C° 0 mm 4 mps 747 mmHg 71%

Day after tomorrow, 23 April, Friday

Time Temperature Precipitation Wind Pressure Humidity
00:00 +10°C° 0 mm 4 mps 747 mmHg 74%
01:00 +8°C° 0 mm 4 mps 747 mmHg 77%
02:00 +8°C° 0 mm 4 mps 747 mmHg 80%
03:00 +9°C° 0 mm 3 mps 747 mmHg 82%
04:00 +8°C° 0 mm 3 mps 747 mmHg 84%
05:00 +8°C° 0 mm 3 mps 747 mmHg 86%
06:00 +9°C° 0 mm 3 mps 747 mmHg 82%
07:00 +10°C° 0 mm 3 mps 747 mmHg 77%
08:00 +11°C° 0 mm 3 mps 747 mmHg 72%
09:00 +12°C° 0.1 mm 3 mps 747 mmHg 69%
10:00 +13°C° 0.1 mm 3 mps 747 mmHg 66%
11:00 +14°C° 0.1 mm 3 mps 747 mmHg 62%
12:00 +13°C° 0.4 mm 4 mps 746 mmHg 65%
13:00 +13°C° 0.4 mm 5 mps 746 mmHg 68%
14:00 +11°C° 0.4 mm 7 mps 746 mmHg 72%
15:00 +9°C° 0.7 mm 6 mps 747 mmHg 76%
16:00 +7°C° 0.7 mm 6 mps 747 mmHg 80%
17:00 +5°C° 0.7 mm 5 mps 747 mmHg 85%
18:00 +5°C° 0.1 mm 5 mps 748 mmHg 83%
19:00 +5°C° 0.1 mm 4 mps 748 mmHg 82%
20:00 +5°C° 0.1 mm 3 mps 749 mmHg 81%
21:00 +4°C° 0 mm 3 mps 749 mmHg 82%
22:00 +5°C° 0 mm 2 mps 749 mmHg 84%
23:00 +4°C° 0 mm 2 mps 749 mmHg 85%

24 April, Saturday

Time Temperature Precipitation Wind Pressure Humidity
00:00 +4°C° 0 mm 2 mps 749 mmHg 85%
01:00 +4°C° 0 mm 2 mps 749 mmHg 86%
02:00 +4°C° 0 mm 2 mps 749 mmHg 86%
03:00 +3°C° 0 mm 2 mps 749 mmHg 86%
04:00 +3°C° 0 mm 2 mps 749 mmHg 85%
05:00 +3°C° 0 mm 2 mps 749 mmHg 85%
06:00 +3°C° 0 mm 3 mps 749 mmHg 80%
07:00 +4°C° 0 mm 4 mps 750 mmHg 75%
08:00 +5°C° 0 mm 5 mps 750 mmHg 70%
09:00 +6°C° 0 mm 5 mps 750 mmHg 61%
10:00 +8°C° 0 mm 5 mps 750 mmHg 52%
11:00 +9°C° 0 mm 6 mps 751 mmHg 43%
12:00 +9°C° 0 mm 6 mps 750 mmHg 40%
13:00 +10°C° 0 mm 6 mps 750 mmHg 38%
14:00 +10°C° 0 mm 7 mps 750 mmHg 36%
15:00 +10°C° 0 mm 7 mps 750 mmHg 38%
16:00 +9°C° 0 mm 6 mps 750 mmHg 41%
17:00 +9°C° 0 mm 6 mps 750 mmHg 44%
18:00 +7°C° 0 mm 5 mps 751 mmHg 47%
19:00 +6°C° 0 mm 4 mps 751 mmHg 50%
20:00 +6°C° 0 mm 2 mps 751 mmHg 53%
21:00 +6°C° 0 mm 2 mps 751 mmHg 53%
22:00 +6°C° 0 mm 2 mps 751 mmHg 54%
23:00 +5°C° 0 mm 2 mps 751 mmHg 54%

25 April, Sunday

Time Temperature Precipitation Wind Pressure Humidity
00:00 +5°C° 0 mm 2 mps 751 mmHg 55%
01:00 +4°C° 0 mm 2 mps 751 mmHg 56%
02:00 +4°C° 0 mm 2 mps 751 mmHg 57%
03:00 +3°C° 0 mm 2 mps 751 mmHg 59%
04:00 +4°C° 0 mm 1 mps 751 mmHg 60%
05:00 +3°C° 0 mm 1 mps 751 mmHg 62%
06:00 +5°C° 0 mm 1 mps 751 mmHg 57%
07:00 +7°C° 0 mm 1 mps 751 mmHg 52%
08:00 +8°C° 0 mm 1 mps 751 mmHg 47%
09:00 +9°C° 0 mm 2 mps 751 mmHg 43%
10:00 +10°C° 0 mm 2 mps 750 mmHg 40%
11:00 +11°C° 0 mm 3 mps 750 mmHg 36%
12:00 +11°C° 0 mm 3 mps 750 mmHg 38%
13:00 +12°C° 0 mm 3 mps 749 mmHg 40%
14:00 +12°C° 0 mm 4 mps 749 mmHg 41%
15:00 +11°C° 0.4 mm 4 mps 749 mmHg 50%
16:00 +10°C° 0.4 mm 4 mps 749 mmHg 60%
17:00 +8°C° 0.4 mm 4 mps 749 mmHg 69%
18:00 +8°C° 0.1 mm 3 mps 749 mmHg 71%
19:00 +7°C° 0.1 mm 2 mps 749 mmHg 74%
20:00 +6°C° 0.1 mm 2 mps 750 mmHg 76%
21:00 +7°C° 0 mm 1 mps 750 mmHg 76%
22:00 +7°C° 0 mm 1 mps 750 mmHg 75%
23:00 +6°C° 0 mm 1 mps 750 mmHg 75%

26 April, Monday

Time Temperature Precipitation Wind Pressure Humidity
00:00 +5°C° 0 mm 2 mps 750 mmHg 74%
01:00 +4°C° 0 mm 2 mps 750 mmHg 73%
02:00 +3°C° 0 mm 3 mps 750 mmHg 72%
03:00 +2°C° 0 mm 3 mps 750 mmHg 72%
04:00 +2°C° 0 mm 3 mps 750 mmHg 73%
05:00 +2°C° 0 mm 3 mps 750 mmHg 73%
06:00 +3°C° 0 mm 3 mps 750 mmHg 68%
07:00 +4°C° 0 mm 4 mps 750 mmHg 64%
08:00 +5°C° 0 mm 5 mps 750 mmHg 59%
09:00 +5°C° 0 mm 6 mps 750 mmHg 53%
10:00 +7°C° 0 mm 6 mps 751 mmHg 47%
11:00 +8°C° 0 mm 7 mps 751 mmHg 41%
12:00 +9°C° 0 mm 7 mps 750 mmHg 39%
13:00 +9°C° 0 mm 7 mps 750 mmHg 37%
14:00 +9°C° 0 mm 7 mps 750 mmHg 35%
15:00 +9°C° 0 mm 7 mps 750 mmHg 35%
16:00 +9°C° 0 mm 6 mps 750 mmHg 36%
17:00 +9°C° 0 mm 6 mps 750 mmHg 36%
18:00 +8°C° 0 mm 4 mps 750 mmHg 41%
19:00 +8°C° 0 mm 3 mps 750 mmHg 47%
20:00 +6°C° 0 mm 2 mps 750 mmHg 52%
21:00 +7°C° 0 mm 1 mps 751 mmHg 53%
22:00 +6°C° 0 mm 1 mps 751 mmHg 55%
23:00 +5°C° 0 mm 0 mps 751 mmHg 56%
Show more

We Need Your Consent

Meteoprog and our Service Providers may store and access personal data such as cookies, device identifiers or other similar technologies on your device and process such data to personalise content and ads, as well as provide social media features and to analyse the traffic.

  • Store and/or access information on your device

    Cookies, device identifiers or other information can be stored or accessed on your device for the purposes indicated above.

  • Personalised ads and content, ad and content measurement, audience insights, and products development

    Ads and content can be personalised based on a profile. More data can be added to better personalise ads and content. Ad and content performance can be measured. Insights about the audience who saw the ads and content can be derived. Such data can be used to develop or improve user’s experience, systems and software.

By clicking ‘I Agree’ you will allow the use of indicated cookies, device identifiers, web beacons or other similar technologies. Your settings can be changed in the browser on your device.

For certain purposes, legitimate interests may be relied on, rather than consent. You can read more about this in our Privacy and Cookie Policy.